Location: Landeleau
(48.2273°N, 3.7285°W)
Time: 02:22:00
(UTC+00:00)

STARLINK-1192 - Pass Details

Date: 30 March 2020
Orbit: 549 x 550 km, 53.0° (Epoch: 03 June)

Event Time Altitude Azimuth Distance (km) Brightness Sun altitude
Rises 18:55:32 0° 220° (SW) 2,712 7.6 -2.9°
Reaches altitude 10° 18:57:50 10° 213° (SSW) 1,822 6.6 -3.3°
Maximum altitude 19:01:44 42° 142° (SE) 800 4.1 -3.9°
Drops below altitude 10° 19:05:40 10° 72° (ENE) 1,832 5.8 -4.6°
Enters shadow 19:07:50 - 65° (ENE) 2,671 6.6 -4.9°
